Location: Iesi
(43.5167°N, 13.2333°E)
Time: 17:00:54
(UTC+00:00)

Cosmos 841 Rocket - Pass Details

Date: 08 August 2020
Orbit: 746 x 773 km, 74.0° (Epoch: 23 September)

Event Time Altitude Azimuth Distance (km) Brightness Sun altitude
Rises 21:34:38 0° 342° (NNW) 3,228 8.0 -26.6°
Reaches altitude 10° 21:37:02 10° 345° (NNW) 2,303 6.9 -26.8°
Enters shadow 21:42:02 65° 54° (NE) 842 3.6 -27.2°
